Year,Month,Day,Hour,Minute,Value (Times are PST for temperature in C)
2014,08,02,00,00,12.80
2014,08,02,00,01,12.80
2014,08,02,00,02,12.80
2014,08,02,00,03,12.70
2014,08,02,00,04,12.70
2014,08,02,00,05,12.70
2014,08,02,00,06,12.70
2014,08,02,00,07,12.70
2014,08,02,00,08,12.70
2014,08,02,00,09,12.60
2014,08,02,00,10,12.60
2014,08,02,00,11,12.60
2014,08,02,00,12,12.60
2014,08,02,00,13,12.60
2014,08,02,00,14,12.60
2014,08,02,00,15,12.60
2014,08,02,00,16,12.60
2014,08,02,00,17,12.60
2014,08,02,00,18,12.60
2014,08,02,00,19,12.60
2014,08,02,00,20,12.60
2014,08,02,00,21,12.60
2014,08,02,00,22,12.60
2014,08,02,00,23,12.60
2014,08,02,00,24,12.70
2014,08,02,00,25,12.70
2014,08,02,00,26,12.80
2014,08,02,00,27,12.80
2014,08,02,00,28,12.90
2014,08,02,00,29,13.00
2014,08,02,00,30,13.10
2014,08,02,00,31,13.30
2014,08,02,00,32,13.50
2014,08,02,00,33,13.70
2014,08,02,00,34,13.90
2014,08,02,00,35,14.00
2014,08,02,00,36,14.20
2014,08,02,00,37,14.30
2014,08,02,00,38,14.40
2014,08,02,00,39,14.50
2014,08,02,00,40,14.60
2014,08,02,00,41,14.50
2014,08,02,00,42,14.50
2014,08,02,00,43,14.30
2014,08,02,00,44,14.20
2014,08,02,00,45,14.10
2014,08,02,00,46,14.10
2014,08,02,00,47,14.00
2014,08,02,00,48,14.00
2014,08,02,00,49,13.90
2014,08,02,00,50,13.90
2014,08,02,00,51,14.00
2014,08,02,00,52,14.10
2014,08,02,00,53,14.20
2014,08,02,00,54,14.20
2014,08,02,00,55,14.10
2014,08,02,00,56,14.00
2014,08,02,00,57,13.80
2014,08,02,00,58,13.80
2014,08,02,00,59,13.70
2014,08,02,01,00,13.70
2014,08,02,01,01,13.70
2014,08,02,01,02,13.80
2014,08,02,01,03,13.80
2014,08,02,01,04,13.80
2014,08,02,01,05,13.80
2014,08,02,01,06,13.80
2014,08,02,01,07,13.80
2014,08,02,01,08,13.90
2014,08,02,01,09,13.90
2014,08,02,01,10,13.80
2014,08,02,01,11,13.80
2014,08,02,01,12,13.80
2014,08,02,01,13,13.80
2014,08,02,01,14,13.80
2014,08,02,01,15,13.80
2014,08,02,01,16,13.80
2014,08,02,01,17,13.80
2014,08,02,01,18,13.80
2014,08,02,01,19,13.70
2014,08,02,01,20,13.70
2014,08,02,01,21,13.70
2014,08,02,01,22,13.70
2014,08,02,01,23,13.60
2014,08,02,01,24,13.60
2014,08,02,01,25,13.60
2014,08,02,01,26,13.60
2014,08,02,01,27,13.60
2014,08,02,01,28,13.60
2014,08,02,01,29,13.60
2014,08,02,01,30,13.60
2014,08,02,01,31,13.60
2014,08,02,01,32,13.60
2014,08,02,01,33,13.60
2014,08,02,01,34,13.60
2014,08,02,01,35,13.60
2014,08,02,01,36,13.50
2014,08,02,01,37,13.50
2014,08,02,01,38,13.40
2014,08,02,01,39,13.40
2014,08,02,01,40,13.30
2014,08,02,01,41,13.30
2014,08,02,01,42,13.30
2014,08,02,01,43,13.30
2014,08,02,01,44,13.30
2014,08,02,01,45,13.30
2014,08,02,01,46,13.30
2014,08,02,01,47,13.30
2014,08,02,01,48,13.30
2014,08,02,01,49,13.30
2014,08,02,01,50,13.30
2014,08,02,01,51,13.30
2014,08,02,01,52,13.30
2014,08,02,01,53,13.30
2014,08,02,01,54,13.40
2014,08,02,01,55,13.40
2014,08,02,01,56,13.40
2014,08,02,01,57,13.40
2014,08,02,01,58,13.40
2014,08,02,01,59,13.40
2014,08,02,02,00,13.40
2014,08,02,02,01,13.40
2014,08,02,02,02,13.40
2014,08,02,02,03,13.40
2014,08,02,02,04,13.40
2014,08,02,02,05,13.40
2014,08,02,02,06,13.40
2014,08,02,02,07,13.40
2014,08,02,02,08,13.40
2014,08,02,02,09,13.40
2014,08,02,02,10,13.30
2014,08,02,02,11,13.30
2014,08,02,02,12,13.30
2014,08,02,02,13,13.30
2014,08,02,02,14,13.30
2014,08,02,02,15,13.30
2014,08,02,02,16,13.30
2014,08,02,02,17,13.40
2014,08,02,02,18,13.40
2014,08,02,02,19,13.40
2014,08,02,02,20,13.50
2014,08,02,02,21,13.60
2014,08,02,02,22,13.60
2014,08,02,02,23,13.70
2014,08,02,02,24,13.70
2014,08,02,02,25,13.80
2014,08,02,02,26,13.80
2014,08,02,02,27,13.90
2014,08,02,02,28,13.90
2014,08,02,02,29,14.00
2014,08,02,02,30,14.00
2014,08,02,02,31,14.10
2014,08,02,02,32,14.10
2014,08,02,02,33,14.20
2014,08,02,02,34,14.20
2014,08,02,02,35,14.20
2014,08,02,02,36,14.20
2014,08,02,02,37,14.20
2014,08,02,02,38,14.20
2014,08,02,02,39,14.20
2014,08,02,02,40,14.20
2014,08,02,02,41,14.20
2014,08,02,02,42,14.20
2014,08,02,02,43,14.20
2014,08,02,02,44,14.20
2014,08,02,02,45,14.10
2014,08,02,02,46,14.10
2014,08,02,02,47,14.10
2014,08,02,02,48,14.10
2014,08,02,02,49,14.10
2014,08,02,02,50,14.10
2014,08,02,02,51,14.10
2014,08,02,02,52,14.10
2014,08,02,02,53,14.00
2014,08,02,02,54,14.00
2014,08,02,02,55,14.00
2014,08,02,02,56,14.00
2014,08,02,02,57,13.90
2014,08,02,02,58,13.90
2014,08,02,02,59,13.90
2014,08,02,03,00,13.90
2014,08,02,03,01,13.90
2014,08,02,03,02,13.90
2014,08,02,03,03,13.90
2014,08,02,03,04,14.00
2014,08,02,03,05,14.00
2014,08,02,03,06,14.00
2014,08,02,03,07,14.00
2014,08,02,03,08,14.00
2014,08,02,03,09,14.10
2014,08,02,03,10,14.10
2014,08,02,03,11,14.10
2014,08,02,03,12,14.10
2014,08,02,03,13,14.10
2014,08,02,03,14,14.20
2014,08,02,03,15,14.20
2014,08,02,03,16,14.20
2014,08,02,03,17,14.20
2014,08,02,03,18,14.20
2014,08,02,03,19,14.20
2014,08,02,03,20,14.20
2014,08,02,03,21,14.20
2014,08,02,03,22,14.20
2014,08,02,03,23,14.30
2014,08,02,03,24,14.40
2014,08,02,03,25,14.50
2014,08,02,03,26,14.50
2014,08,02,03,27,14.60
2014,08,02,03,28,14.80
2014,08,02,03,29,14.90
2014,08,02,03,30,15.00
2014,08,02,03,31,15.00
2014,08,02,03,32,15.10
2014,08,02,03,33,15.20
2014,08,02,03,34,15.30
2014,08,02,03,35,15.40
2014,08,02,03,36,15.40
2014,08,02,03,37,15.50
2014,08,02,03,38,15.50
2014,08,02,03,39,15.60
2014,08,02,03,40,15.60
2014,08,02,03,41,15.60
2014,08,02,03,42,15.60
2014,08,02,03,43,15.70
2014,08,02,03,44,15.70
2014,08,02,03,45,15.70
2014,08,02,03,46,15.70
2014,08,02,03,47,15.80
2014,08,02,03,48,15.80
2014,08,02,03,49,15.80
2014,08,02,03,50,15.80
2014,08,02,03,51,15.90
2014,08,02,03,52,15.90
2014,08,02,03,53,15.90
2014,08,02,03,54,15.90
2014,08,02,03,55,15.90
2014,08,02,03,56,15.90
2014,08,02,03,57,15.90
2014,08,02,03,58,15.90
2014,08,02,03,59,15.90
2014,08,02,04,00,15.90
2014,08,02,04,01,15.90
2014,08,02,04,02,15.90
2014,08,02,04,03,15.90
2014,08,02,04,04,15.90
2014,08,02,04,05,15.90
2014,08,02,04,06,15.90
2014,08,02,04,07,15.80
2014,08,02,04,08,15.80
2014,08,02,04,09,15.80
2014,08,02,04,10,15.80
2014,08,02,04,11,15.70
2014,08,02,04,12,15.70
2014,08,02,04,13,15.70
2014,08,02,04,14,15.70
2014,08,02,04,15,15.70
2014,08,02,04,16,15.60
2014,08,02,04,17,15.60
2014,08,02,04,18,15.60
2014,08,02,04,19,15.60
2014,08,02,04,20,15.50
2014,08,02,04,21,15.50
2014,08,02,04,22,15.40
2014,08,02,04,23,15.40
2014,08,02,04,24,15.40
2014,08,02,04,25,15.40
2014,08,02,04,26,15.40
2014,08,02,04,27,15.40
2014,08,02,04,28,15.40
2014,08,02,04,29,15.40
2014,08,02,04,30,15.30
2014,08,02,04,31,15.30
2014,08,02,04,32,15.30
2014,08,02,04,33,15.20
2014,08,02,04,34,15.20
2014,08,02,04,35,15.20
2014,08,02,04,36,15.10
2014,08,02,04,37,15.10
2014,08,02,04,38,15.10
2014,08,02,04,39,15.10
2014,08,02,04,40,15.10
2014,08,02,04,41,15.00
2014,08,02,04,42,15.00
2014,08,02,04,43,15.00
2014,08,02,04,44,15.00
2014,08,02,04,45,15.00
2014,08,02,04,46,15.00
2014,08,02,04,47,15.00
2014,08,02,04,48,14.90
2014,08,02,04,49,14.90
2014,08,02,04,50,14.90
2014,08,02,04,51,14.90
2014,08,02,04,52,15.00
2014,08,02,04,53,15.00
2014,08,02,04,54,15.00
2014,08,02,04,55,15.00
2014,08,02,04,56,14.90
2014,08,02,04,57,14.90
2014,08,02,04,58,14.80
2014,08,02,04,59,14.70
2014,08,02,05,00,14.60
2014,08,02,05,01,14.50
2014,08,02,05,02,14.30
2014,08,02,05,03,14.20
2014,08,02,05,04,14.10
2014,08,02,05,05,14.00
2014,08,02,05,06,13.90
2014,08,02,05,07,13.90
2014,08,02,05,08,13.80
2014,08,02,05,09,13.70
2014,08,02,05,10,13.60
2014,08,02,05,11,13.60
2014,08,02,05,12,13.60
2014,08,02,05,13,13.60
2014,08,02,05,14,13.50
2014,08,02,05,15,13.50
2014,08,02,05,16,13.40
2014,08,02,05,17,13.40
2014,08,02,05,18,13.40
2014,08,02,05,19,13.40
2014,08,02,05,20,13.40
2014,08,02,05,21,13.40
2014,08,02,05,22,13.40
2014,08,02,05,23,13.40
2014,08,02,05,24,13.50
2014,08,02,05,25,13.50
2014,08,02,05,26,13.60
2014,08,02,05,27,13.60
2014,08,02,05,28,13.50
2014,08,02,05,29,13.50
2014,08,02,05,30,13.40
2014,08,02,05,31,13.30
2014,08,02,05,32,13.30
2014,08,02,05,33,13.20
2014,08,02,05,34,13.30
2014,08,02,05,35,13.40
2014,08,02,05,36,13.50
2014,08,02,05,37,13.50
2014,08,02,05,38,13.50
2014,08,02,05,39,13.50
2014,08,02,05,40,13.40
2014,08,02,05,41,13.40
2014,08,02,05,42,13.40
2014,08,02,05,43,13.30
2014,08,02,05,44,13.30
2014,08,02,05,45,13.20
2014,08,02,05,46,13.20
2014,08,02,05,47,13.20
2014,08,02,05,48,13.10
2014,08,02,05,49,13.00
2014,08,02,05,50,12.90
2014,08,02,05,51,12.70
2014,08,02,05,52,12.50
2014,08,02,05,53,12.40
2014,08,02,05,54,12.30
2014,08,02,05,55,12.20
2014,08,02,05,56,12.10
2014,08,02,05,57,12.00
2014,08,02,05,58,11.90
2014,08,02,05,59,11.90
2014,08,02,06,00,11.90
2014,08,02,06,01,11.90
2014,08,02,06,02,11.90
2014,08,02,06,03,11.90
2014,08,02,06,04,11.80
2014,08,02,06,05,11.80
2014,08,02,06,06,11.80
2014,08,02,06,07,11.80
2014,08,02,06,08,11.80
2014,08,02,06,09,11.80
2014,08,02,06,10,11.70
2014,08,02,06,11,11.70
2014,08,02,06,12,11.70
2014,08,02,06,13,11.70
2014,08,02,06,14,11.70
2014,08,02,06,15,11.70
2014,08,02,06,16,11.70
2014,08,02,06,17,11.70
2014,08,02,06,18,11.60
2014,08,02,06,19,11.60
2014,08,02,06,20,11.70
2014,08,02,06,21,11.70
2014,08,02,06,22,11.80
2014,08,02,06,23,11.90
2014,08,02,06,24,12.10
2014,08,02,06,25,12.20
2014,08,02,06,26,12.30
2014,08,02,06,27,12.40
2014,08,02,06,28,12.50
2014,08,02,06,29,12.60
2014,08,02,06,30,12.70
2014,08,02,06,31,12.70
2014,08,02,06,32,12.90
2014,08,02,06,33,13.10
2014,08,02,06,34,13.20
2014,08,02,06,35,13.20
2014,08,02,06,36,13.30
2014,08,02,06,37,13.40
2014,08,02,06,38,13.60
2014,08,02,06,39,13.70
2014,08,02,06,40,13.80
2014,08,02,06,41,13.90
2014,08,02,06,42,13.90
2014,08,02,06,43,13.90
2014,08,02,06,44,13.80
2014,08,02,06,45,13.60
2014,08,02,06,46,13.40
2014,08,02,06,47,13.20
2014,08,02,06,48,13.10
2014,08,02,06,49,13.00
2014,08,02,06,50,12.80
2014,08,02,06,51,12.70
2014,08,02,06,52,12.60
2014,08,02,06,53,12.50
2014,08,02,06,54,12.40
2014,08,02,06,55,12.40
2014,08,02,06,56,12.40
2014,08,02,06,57,12.40
2014,08,02,06,58,12.30
2014,08,02,06,59,12.30
2014,08,02,07,00,12.30
2014,08,02,07,01,12.30
2014,08,02,07,02,12.30
2014,08,02,07,03,12.30
2014,08,02,07,04,12.30
2014,08,02,07,05,12.30
2014,08,02,07,06,12.20
2014,08,02,07,07,12.20
2014,08,02,07,08,12.20
2014,08,02,07,09,12.20
2014,08,02,07,10,12.20
2014,08,02,07,11,12.20
2014,08,02,07,12,12.30
2014,08,02,07,13,12.40
2014,08,02,07,14,12.40
2014,08,02,07,15,12.50
2014,08,02,07,16,12.60
2014,08,02,07,17,12.70
2014,08,02,07,18,12.90
2014,08,02,07,19,13.00
2014,08,02,07,20,13.10
2014,08,02,07,21,13.10
2014,08,02,07,22,13.10
2014,08,02,07,23,12.90
2014,08,02,07,24,12.80
2014,08,02,07,25,12.70
2014,08,02,07,26,12.70
2014,08,02,07,27,12.70
2014,08,02,07,28,12.70
2014,08,02,07,29,12.70
2014,08,02,07,30,12.70
2014,08,02,07,31,12.70
2014,08,02,07,32,12.70
2014,08,02,07,33,12.70
2014,08,02,07,34,12.70
2014,08,02,07,35,12.70
2014,08,02,07,36,12.80
2014,08,02,07,37,12.80
2014,08,02,07,38,12.90
2014,08,02,07,39,13.00
2014,08,02,07,40,13.10
2014,08,02,07,41,13.20
2014,08,02,07,42,13.20
2014,08,02,07,43,13.30
2014,08,02,07,44,13.20
2014,08,02,07,45,13.20
2014,08,02,07,46,13.30
2014,08,02,07,47,13.30
2014,08,02,07,48,13.30
2014,08,02,07,49,13.40
2014,08,02,07,50,13.40
2014,08,02,07,51,13.50
2014,08,02,07,52,13.60
2014,08,02,07,53,13.60
2014,08,02,07,54,13.60
2014,08,02,07,55,13.50
2014,08,02,07,56,13.50
2014,08,02,07,57,13.40
2014,08,02,07,58,13.40
2014,08,02,07,59,13.40
2014,08,02,08,00,13.50
2014,08,02,08,01,13.50
2014,08,02,08,02,13.60
2014,08,02,08,03,13.60
2014,08,02,08,04,13.70
2014,08,02,08,05,13.70
2014,08,02,08,06,13.70
2014,08,02,08,07,13.70
2014,08,02,08,08,13.70
2014,08,02,08,09,13.70
2014,08,02,08,10,13.70
2014,08,02,08,11,13.80
2014,08,02,08,12,13.80
2014,08,02,08,13,13.90
2014,08,02,08,14,14.00
2014,08,02,08,15,14.10
2014,08,02,08,16,14.20
2014,08,02,08,17,14.20
2014,08,02,08,18,14.20
2014,08,02,08,19,14.20
2014,08,02,08,20,14.10
2014,08,02,08,21,14.00
2014,08,02,08,22,13.90
2014,08,02,08,23,13.80
2014,08,02,08,24,13.80
2014,08,02,08,25,13.80
2014,08,02,08,26,13.80
2014,08,02,08,27,13.80
2014,08,02,08,28,13.70
2014,08,02,08,29,13.70
2014,08,02,08,30,13.70
2014,08,02,08,31,13.80
2014,08,02,08,32,13.80
2014,08,02,08,33,13.90
2014,08,02,08,34,13.90
2014,08,02,08,35,14.00
2014,08,02,08,36,14.00
2014,08,02,08,37,14.00
2014,08,02,08,38,13.90
2014,08,02,08,39,13.90
2014,08,02,08,40,13.90
2014,08,02,08,41,14.00
2014,08,02,08,42,14.10
2014,08,02,08,43,14.20
2014,08,02,08,44,14.30
2014,08,02,08,45,14.30
2014,08,02,08,46,14.30
2014,08,02,08,47,14.30
2014,08,02,08,48,14.30
2014,08,02,08,49,14.30
2014,08,02,08,50,14.30
2014,08,02,08,51,14.40
2014,08,02,08,52,14.40
2014,08,02,08,53,14.40
2014,08,02,08,54,14.40
2014,08,02,08,55,14.40
2014,08,02,08,56,14.40
2014,08,02,08,57,14.30
2014,08,02,08,58,14.20
2014,08,02,08,59,14.20
2014,08,02,09,00,14.20
2014,08,02,09,01,14.20
2014,08,02,09,02,14.20
2014,08,02,09,03,14.20
2014,08,02,09,04,14.10
2014,08,02,09,05,14.10
2014,08,02,09,06,14.00
2014,08,02,09,07,13.90
2014,08,02,09,08,13.80
2014,08,02,09,09,13.80
2014,08,02,09,10,13.90
2014,08,02,09,11,13.90
2014,08,02,09,12,14.00
2014,08,02,09,13,14.10
2014,08,02,09,14,14.20
2014,08,02,09,15,14.20
2014,08,02,09,16,14.30
2014,08,02,09,17,14.40
2014,08,02,09,18,14.40
2014,08,02,09,19,14.40
2014,08,02,09,20,14.40
2014,08,02,09,21,14.30
2014,08,02,09,22,14.20
2014,08,02,09,23,14.20
2014,08,02,09,24,14.20
2014,08,02,09,25,14.20
2014,08,02,09,26,14.20
2014,08,02,09,27,14.30
2014,08,02,09,28,14.30
2014,08,02,09,29,14.40
2014,08,02,09,30,14.40
2014,08,02,09,31,14.40
2014,08,02,09,32,14.50
2014,08,02,09,33,14.50
2014,08,02,09,34,14.50
2014,08,02,09,35,14.60
2014,08,02,09,36,14.60
2014,08,02,09,37,14.60
2014,08,02,09,38,14.60
2014,08,02,09,39,14.60
2014,08,02,09,40,14.60
2014,08,02,09,41,14.70
2014,08,02,09,42,14.70
2014,08,02,09,43,14.70
2014,08,02,09,44,14.80
2014,08,02,09,45,14.80
2014,08,02,09,46,14.90
2014,08,02,09,47,15.00
2014,08,02,09,48,15.10
2014,08,02,09,49,15.10
2014,08,02,09,50,15.30
2014,08,02,09,51,15.40
2014,08,02,09,52,15.50
2014,08,02,09,53,15.60
2014,08,02,09,54,15.70
2014,08,02,09,55,15.80
2014,08,02,09,56,15.80
2014,08,02,09,57,15.90
2014,08,02,09,58,16.00
2014,08,02,09,59,16.00
2014,08,02,10,00,15.90
2014,08,02,10,01,15.80
2014,08,02,10,02,15.70
2014,08,02,10,03,15.60
2014,08,02,10,04,15.60
2014,08,02,10,05,15.60
2014,08,02,10,06,15.60
2014,08,02,10,07,15.60
2014,08,02,10,08,15.60
2014,08,02,10,09,15.60
2014,08,02,10,10,15.70
2014,08,02,10,11,15.70
2014,08,02,10,12,15.80
2014,08,02,10,13,15.90
2014,08,02,10,14,16.00
2014,08,02,10,15,16.20
2014,08,02,10,16,16.30
2014,08,02,10,17,16.40
2014,08,02,10,18,16.50
2014,08,02,10,19,16.60
2014,08,02,10,20,16.70
2014,08,02,10,21,16.80
2014,08,02,10,22,16.90
2014,08,02,10,23,17.00
2014,08,02,10,24,17.00
2014,08,02,10,25,17.10
2014,08,02,10,26,17.20
2014,08,02,10,27,17.30
2014,08,02,10,28,17.30
2014,08,02,10,29,17.40
2014,08,02,10,30,17.50
2014,08,02,10,31,17.60
2014,08,02,10,32,17.70
2014,08,02,10,33,17.70
2014,08,02,10,34,17.70
2014,08,02,10,35,17.80
2014,08,02,10,36,17.90
2014,08,02,10,37,17.80
2014,08,02,10,38,17.50
2014,08,02,10,39,17.30
2014,08,02,10,40,17.20
2014,08,02,10,41,17.20
2014,08,02,10,42,17.20
2014,08,02,10,43,17.10
2014,08,02,10,44,16.70
2014,08,02,10,45,16.20
2014,08,02,10,46,16.00
2014,08,02,10,47,15.80
2014,08,02,10,48,15.50
2014,08,02,10,49,15.30
2014,08,02,10,50,15.20
2014,08,02,10,51,15.20
2014,08,02,10,52,15.30
2014,08,02,10,53,15.20
2014,08,02,10,54,15.10
2014,08,02,10,55,15.10
2014,08,02,10,56,15.10
2014,08,02,10,57,15.30
2014,08,02,10,58,15.40
2014,08,02,10,59,15.60
2014,08,02,11,00,15.80
2014,08,02,11,01,15.80
2014,08,02,11,02,15.80
2014,08,02,11,03,15.70
2014,08,02,11,04,15.50
2014,08,02,11,05,15.30
2014,08,02,11,06,15.10
2014,08,02,11,07,14.90
2014,08,02,11,08,14.70
2014,08,02,11,09,14.60
2014,08,02,11,10,14.40
2014,08,02,11,11,14.40
2014,08,02,11,12,14.30
2014,08,02,11,13,14.30
2014,08,02,11,14,14.30
2014,08,02,11,15,14.30
2014,08,02,11,16,14.30
2014,08,02,11,17,14.30
2014,08,02,11,18,14.30
2014,08,02,11,19,14.30
2014,08,02,11,20,14.30
2014,08,02,11,21,14.40
2014,08,02,11,22,14.40
2014,08,02,11,23,14.50
2014,08,02,11,24,14.50
2014,08,02,11,25,14.60
2014,08,02,11,26,14.60
2014,08,02,11,27,14.60
2014,08,02,11,28,14.60
2014,08,02,11,29,14.60
2014,08,02,11,30,14.60
2014,08,02,11,31,14.70
2014,08,02,11,32,14.70
2014,08,02,11,33,14.70
2014,08,02,11,34,14.70
2014,08,02,11,35,14.70
2014,08,02,11,36,14.70
2014,08,02,11,37,14.70
2014,08,02,11,38,14.70
2014,08,02,11,39,14.70
2014,08,02,11,40,14.80
2014,08,02,11,41,14.80
2014,08,02,11,42,14.80
2014,08,02,11,43,14.80
2014,08,02,11,44,14.80
2014,08,02,11,45,14.80
2014,08,02,11,46,14.80
2014,08,02,11,47,14.70
2014,08,02,11,48,14.70
2014,08,02,11,49,14.70
2014,08,02,11,50,14.70
2014,08,02,11,51,14.70
2014,08,02,11,52,14.80
2014,08,02,11,53,14.90
2014,08,02,11,54,15.00
2014,08,02,11,55,15.10
2014,08,02,11,56,15.20
2014,08,02,11,57,15.20
2014,08,02,11,58,15.20
2014,08,02,11,59,15.20
2014,08,02,12,00,15.30
2014,08,02,12,01,15.20
2014,08,02,12,02,15.10
2014,08,02,12,03,15.20
2014,08,02,12,04,15.30
2014,08,02,12,05,15.30
2014,08,02,12,06,15.30
2014,08,02,12,07,15.10
2014,08,02,12,08,15.00
2014,08,02,12,09,15.00
2014,08,02,12,10,14.90
2014,08,02,12,11,14.90
2014,08,02,12,12,14.80
2014,08,02,12,13,14.80
2014,08,02,12,14,14.70
2014,08,02,12,15,14.80
2014,08,02,12,16,14.90
2014,08,02,12,17,15.10
2014,08,02,12,18,15.30
2014,08,02,12,19,15.40
2014,08,02,12,20,15.50
2014,08,02,12,21,15.60
2014,08,02,12,22,15.70
2014,08,02,12,23,15.80
2014,08,02,12,24,16.00
2014,08,02,12,25,16.10
2014,08,02,12,26,16.20
2014,08,02,12,27,16.30
2014,08,02,12,28,16.40
2014,08,02,12,29,16.40
2014,08,02,12,30,16.40
2014,08,02,12,31,16.40
2014,08,02,12,32,16.40
2014,08,02,12,33,16.50
2014,08,02,12,34,16.50
2014,08,02,12,35,16.60
2014,08,02,12,36,16.60
2014,08,02,12,37,16.60
2014,08,02,12,38,16.60
2014,08,02,12,39,16.60
2014,08,02,12,40,16.60
2014,08,02,12,41,16.60
2014,08,02,12,42,16.60
2014,08,02,12,43,16.70
2014,08,02,12,44,16.70
2014,08,02,12,45,16.70
2014,08,02,12,46,16.70
2014,08,02,12,47,16.70
2014,08,02,12,48,16.80
2014,08,02,12,49,16.80
2014,08,02,12,50,16.70
2014,08,02,12,51,16.60
2014,08,02,12,52,16.60
2014,08,02,12,53,16.70
2014,08,02,12,54,16.80
2014,08,02,12,55,16.90
2014,08,02,12,56,17.00
2014,08,02,12,57,17.10
2014,08,02,12,58,17.20
2014,08,02,12,59,17.20
2014,08,02,13,00,17.30
2014,08,02,13,01,17.30
2014,08,02,13,02,17.30
2014,08,02,13,03,17.40
2014,08,02,13,04,17.40
2014,08,02,13,05,17.50
2014,08,02,13,06,17.50
2014,08,02,13,07,17.60
2014,08,02,13,08,17.60
2014,08,02,13,09,17.60
2014,08,02,13,10,17.70
2014,08,02,13,11,17.80
2014,08,02,13,12,17.80
2014,08,02,13,13,17.80
2014,08,02,13,14,17.80
2014,08,02,13,15,17.80
2014,08,02,13,16,17.80
2014,08,02,13,17,17.80
2014,08,02,13,18,17.60
2014,08,02,13,19,17.60
2014,08,02,13,20,17.60
2014,08,02,13,21,17.60
2014,08,02,13,22,17.50
2014,08,02,13,23,17.50
2014,08,02,13,24,17.60
2014,08,02,13,25,17.50
2014,08,02,13,26,17.40
2014,08,02,13,27,17.20
2014,08,02,13,28,17.20
2014,08,02,13,29,17.20
2014,08,02,13,30,17.30
2014,08,02,13,31,17.40
2014,08,02,13,32,17.50
2014,08,02,13,33,17.60
2014,08,02,13,34,17.70
2014,08,02,13,35,17.80
2014,08,02,13,36,17.80
2014,08,02,13,37,17.80
2014,08,02,13,38,17.90
2014,08,02,13,39,18.00
2014,08,02,13,40,18.10
2014,08,02,13,41,18.20
2014,08,02,13,42,18.30
2014,08,02,13,43,18.30
2014,08,02,13,44,18.40
2014,08,02,13,45,18.40
2014,08,02,13,46,18.40
2014,08,02,13,47,18.50
2014,08,02,13,48,18.50
2014,08,02,13,49,18.60
2014,08,02,13,50,18.60
2014,08,02,13,51,18.60
2014,08,02,13,52,18.60
2014,08,02,13,53,18.50
2014,08,02,13,54,18.50
2014,08,02,13,55,18.50
2014,08,02,13,56,18.50
2014,08,02,13,57,18.60
2014,08,02,13,58,18.70
2014,08,02,13,59,18.70
2014,08,02,14,00,18.70
2014,08,02,14,01,18.80
2014,08,02,14,02,18.80
2014,08,02,14,03,18.80
2014,08,02,14,04,18.80
2014,08,02,14,05,18.70
2014,08,02,14,06,18.20
2014,08,02,14,07,17.80
2014,08,02,14,08,17.40
2014,08,02,14,09,17.10
2014,08,02,14,10,16.90
2014,08,02,14,11,16.90
2014,08,02,14,12,16.90
2014,08,02,14,13,16.80
2014,08,02,14,14,16.60
2014,08,02,14,15,16.40
2014,08,02,14,16,16.30
2014,08,02,14,17,16.10
2014,08,02,14,18,16.00
2014,08,02,14,19,15.80
2014,08,02,14,20,15.60
2014,08,02,14,21,15.50
2014,08,02,14,22,15.40
2014,08,02,14,23,15.40
2014,08,02,14,24,15.40
2014,08,02,14,25,15.30
2014,08,02,14,26,15.20
2014,08,02,14,27,15.10
2014,08,02,14,28,15.10
2014,08,02,14,29,15.10
2014,08,02,14,30,15.10
2014,08,02,14,31,15.20
2014,08,02,14,32,15.20
2014,08,02,14,33,15.20
2014,08,02,14,34,15.10
2014,08,02,14,35,15.00
2014,08,02,14,36,15.00
2014,08,02,14,37,15.00
2014,08,02,14,38,15.10
2014,08,02,14,39,15.00
2014,08,02,14,40,15.00
2014,08,02,14,41,15.00
2014,08,02,14,42,15.00
2014,08,02,14,43,15.00
2014,08,02,14,44,15.10
2014,08,02,14,45,15.10
2014,08,02,14,46,15.00
2014,08,02,14,47,15.00
2014,08,02,14,48,15.00
2014,08,02,14,49,15.00
2014,08,02,14,50,14.90
2014,08,02,14,51,14.80
2014,08,02,14,52,14.70
2014,08,02,14,53,14.60
2014,08,02,14,54,14.40
2014,08,02,14,55,14.30
2014,08,02,14,56,14.20
2014,08,02,14,57,14.20
2014,08,02,14,58,14.10
2014,08,02,14,59,14.00
2014,08,02,15,00,14.00
2014,08,02,15,01,14.00
2014,08,02,15,02,13.90
2014,08,02,15,03,13.90
2014,08,02,15,04,13.90
2014,08,02,15,05,13.80
2014,08,02,15,06,13.80
2014,08,02,15,07,13.70
2014,08,02,15,08,13.70
2014,08,02,15,09,13.70
2014,08,02,15,10,13.60
2014,08,02,15,11,13.60
2014,08,02,15,12,13.60
2014,08,02,15,13,13.60
2014,08,02,15,14,13.60
2014,08,02,15,15,13.60
2014,08,02,15,16,13.60
2014,08,02,15,17,13.60
2014,08,02,15,18,13.60
2014,08,02,15,19,13.60
2014,08,02,15,20,13.70
2014,08,02,15,21,13.70
2014,08,02,15,22,13.70
2014,08,02,15,23,13.70
2014,08,02,15,24,13.70
2014,08,02,15,25,13.70
2014,08,02,15,26,13.70
2014,08,02,15,27,13.70
2014,08,02,15,28,13.60
2014,08,02,15,29,13.60
2014,08,02,15,30,13.60
2014,08,02,15,31,13.60
2014,08,02,15,32,13.50
2014,08,02,15,33,13.50
2014,08,02,15,34,13.50
2014,08,02,15,35,13.50
2014,08,02,15,36,13.40
2014,08,02,15,37,13.40
2014,08,02,15,38,13.40
2014,08,02,15,39,13.40
2014,08,02,15,40,13.40
2014,08,02,15,41,13.40
2014,08,02,15,42,13.40
2014,08,02,15,43,13.40
2014,08,02,15,44,13.40
2014,08,02,15,45,13.30
2014,08,02,15,46,13.30
2014,08,02,15,47,13.30
2014,08,02,15,48,13.30
2014,08,02,15,49,13.20
2014,08,02,15,50,13.20
2014,08,02,15,51,13.20
2014,08,02,15,52,13.20
2014,08,02,15,53,13.20
2014,08,02,15,54,13.20
2014,08,02,15,55,13.10
2014,08,02,15,56,13.10
2014,08,02,15,57,13.10
2014,08,02,15,58,13.10
2014,08,02,15,59,13.10
2014,08,02,16,00,13.10
2014,08,02,16,01,13.10
2014,08,02,16,02,13.10
2014,08,02,16,03,13.10
2014,08,02,16,04,13.10
2014,08,02,16,05,13.10
2014,08,02,16,06,13.10
2014,08,02,16,07,13.20
2014,08,02,16,08,13.20
2014,08,02,16,09,13.20
2014,08,02,16,10,13.20
2014,08,02,16,11,13.20
2014,08,02,16,12,13.20
2014,08,02,16,13,13.20
2014,08,02,16,14,13.20
2014,08,02,16,15,13.20
2014,08,02,16,16,13.20
2014,08,02,16,17,13.20
2014,08,02,16,18,13.20
2014,08,02,16,19,13.20
2014,08,02,16,20,13.30
2014,08,02,16,21,13.30
2014,08,02,16,22,13.40
2014,08,02,16,23,13.60
2014,08,02,16,24,13.80
2014,08,02,16,25,13.90
2014,08,02,16,26,14.10
2014,08,02,16,27,14.30
2014,08,02,16,28,14.40
2014,08,02,16,29,14.60
2014,08,02,16,30,14.80
2014,08,02,16,31,14.90
2014,08,02,16,32,14.90
2014,08,02,16,33,15.00
2014,08,02,16,34,15.10
2014,08,02,16,35,15.20
2014,08,02,16,36,15.60
2014,08,02,16,37,16.10
2014,08,02,16,38,16.70
2014,08,02,16,39,17.40
2014,08,02,16,40,18.20
2014,08,02,16,41,19.10
2014,08,02,16,42,19.90
2014,08,02,16,43,20.50
2014,08,02,16,44,20.80
2014,08,02,16,45,20.90
2014,08,02,16,46,20.60
2014,08,02,16,47,20.40
2014,08,02,16,48,20.10
2014,08,02,16,49,19.70
2014,08,02,16,50,19.30
2014,08,02,16,51,18.80
2014,08,02,16,52,18.10
2014,08,02,16,53,17.50
2014,08,02,16,54,17.00
2014,08,02,16,55,16.60
2014,08,02,16,56,16.30
2014,08,02,16,57,16.00
2014,08,02,16,58,15.70
2014,08,02,16,59,15.40
2014,08,02,17,00,15.10
2014,08,02,17,01,14.90
2014,08,02,17,02,14.70
2014,08,02,17,03,14.60
2014,08,02,17,04,14.60
2014,08,02,17,05,14.50
2014,08,02,17,06,14.50
2014,08,02,17,07,14.50
2014,08,02,17,08,14.50
2014,08,02,17,09,14.40
2014,08,02,17,10,14.40
2014,08,02,17,11,14.50
2014,08,02,17,12,14.60
2014,08,02,17,13,14.70
2014,08,02,17,14,14.70
2014,08,02,17,15,14.60
2014,08,02,17,16,14.60
2014,08,02,17,17,14.40
2014,08,02,17,18,14.30
2014,08,02,17,19,14.20